Location: Dompnac
(44.5644°N, 4.1026°E)
Time: 10:14:23
(UTC+00:00)

Cosmos 2026 Rocket - Pass Details

Date: 24 January 2021
Orbit: 940 x 1000 km, 82.9° (Epoch: 26 February)

Event Time Altitude Azimuth Distance (km) Brightness Sun altitude
Rises 19:21:11 0° 211° (SSW) 3,607 7.4 -28.3°
Reaches altitude 10° 19:23:50 10° 219° (SW) 2,674 6.7 -28.7°
Maximum altitude 19:29:29 38° 286° (WNW) 1,427 5.3 -29.7°
Drops below altitude 10° 19:35:15 10° 354° (N) 2,727 6.4 -30.8°
Sets 19:38:00 0° 2° (N) 3,688 7.0 -31.3°
